This demonstration page uses our WeatherBlox Daily Observations layout. Learn more.

Left ArrowRight Arrow

47.50024, -111.30081

Hourly Observations for September 27, 2022

Temp ( °F °C ) Dew Point ( °F °C ) Humidity (%) Winds ( mph kmh ) Pressure ( in mb ) Visibility ( mi km ) Precip ( " mm )
12:53 am 00:53 Clear 54 12.2 39 3.9 57 57 SSW 6 9 30.06 1018 10 16 0.00 0.00
1:53 am 01:53 Clear 49 9.4 40 4.4 71 71 SW 9 15 30.07 1018 10 16 0.00 0.00
2:53 am 02:53 Clear 50 10 40 4.4 68 68 SW 8 13 30.07 1018 10 16 0.00 0.00
3:53 am 03:53 Clear 49 9.4 38 3.3 66 66 SSW 3 6 30.06 1018 10 16 0.00 0.00
4:53 am 04:53 Clear 50 10 38 3.3 63 63 Calm 30.06 1018 10 16 0.00 0.00
5:53 am 05:53 Clear 48 8.9 39 3.9 71 71 SW 9 15 30.06 1018 10 16 0.00 0.00
6:53 am 06:53 Clear 50 10 39 3.9 66 66 SSW 9 15 30.06 1018 10 16 0.00 0.00
7:53 am 07:53 Sunny 49 9.4 40 4.4 71 71 W 8 13 30.07 1018 10 16 0.00 0.00
8:53 am 08:53 Sunny 57 13.9 41 5 55 55 W 7 11 30.08 1019 10 16 0.00 0.00
9:53 am 09:53 Sunny 67 19.4 41 5 39 39 W 6 9 30.07 1018 10 16 0.00 0.00
10:53 am 10:53 Sunny 72 22.2 41 5 33 33 SW 7 11 30.06 1018 10 16 0.00 0.00
11:53 am 11:53 Sunny 76 24.4 41 5 29 29 SSW 6 9 30.05 1018 10 16 0.00 0.00
12:53 pm 12:53 Sunny 80 26.7 38 3.3 22 22 N 3 6 30.04 1017 10 16 0.00 0.00
1:53 pm 13:53 Sunny 82 27.8 38 3.3 21 21 VRB 6 9 30.02 1017 10 16 0.00 0.00
2:53 pm 14:53 Sunny 82 27.8 36 2.2 19 19 VRB 6 9 30.01 1016 10 16 0.00 0.00
3:53 pm 15:53 Sunny 85 29.4 32 0 15 15 Calm 29.98 1015 10 16 0.00 0.00
4:53 pm 16:53 Sunny 84 28.9 34 1.1 17 17 ESE 5 7 29.97 1015 10 16 0.00 0.00
5:53 pm 17:53 Sunny 83 28.3 34 1.1 17 17 NE 6 9 29.96 1015 10 16 0.00 0.00
6:53 pm 18:53 Sunny 75 23.9 38 3.3 26 26 E 6 9 29.98 1015 10 16 0.00 0.00
7:53 pm 19:53 Clear 70 21.1 35 1.7 28 28 E 6 9 30.01 1016 10 16 0.00 0.00
8:53 pm 20:53 Clear 69 20.6 34 1.1 27 27 ESE 10 17 30.00 1016 10 16 0.00 0.00
9:53 pm 21:53 Clear 66 18.9 38 3.3 35 35 ESE 10 17 29.98 1015 10 16 0.00 0.00
10:53 pm 22:53 Clear 57 13.9 38 3.3 49 49 SW 6 9 30.00 1016 10 16 0.00 0.00
11:53 pm 23:53 Clear 53 11.7 38 3.3 56 56 WSW 9 15 30.00 1016 10 16 0.00 0.00

Powered by AerisWeather